Tracking 30746 objects as of 19-Jun-2025
HD Live streaming from Space Station
objects crossing your sky now

COSMOS 1275 DEB

Track COSMOS 1275 DEB now!
10-day predictions


NORAD ID: 12705
Int'l Code: 1981-053AZ
Perigee: 868.4 km
Apogee: 905.9 km
Inclination: 82.9 °
Period: 102.6 minutes
Semi major axis: 7258 km
RCS: 0.2491 m2 (medium)
Launch date: June 4, 1981
Source: Commonwealth of Independent States (former USSR) (CIS)
Launch site: PLESETSK MISSILE AND SPACE COMPLEX (PKMTR)

Note: This is SATELLITE DEBRIS
Your satellite tracking list
Your tracking list is empty




NASA's NSSDC Master Catalog

Two Line Element Set (TLE):
1 12705U 81053AZ  25169.71750804  .00001003  00000-0  62276-3 0  9997
2 12705  82.8875 150.7229 0025878 181.5072 356.9001 14.03989850223014
Source of the keplerian elements: AFSPC